Other Public Products
Issued by NWS Grand Forks, ND

Home | Current Version | Previous Version | Graphics & Text | Print | Product List | Glossary On
Versions: 1 2 3 4 5 6 7 8 9 10 11 12 13 14 15 16 17 18 19 20 21 22 23 24 25 26 27 28 29 30 31 32 33 34 35 36 37 38 39 40 41 42 43 44 45 46 47 48 49 50
000
FPUS83 KFGF 180910
OPUFGF
PRAIRIE TO PINES WEATHER ROUNDUP
NATIONAL WEATHER SERVICE EASTERN NORTH DAKOTA/GRAND FORKS ND
400 AM CDT WED OCT 18 2017

 **SATELLITE DATA USED TO AUGMENT SKY COVER AT AUTOMATED STATIONS**
 *****  WEATHER ACROSS EASTERN NORTH DAKOTA  *****

CITY           SKY/WX    TMP DP  RH WIND       PRES   REMARKS
GRAND FORKS    FAIR      54  40  59 S14       29.50F
GRAND FORKS AF FAIR      59  37  45 SW15      29.49F
GRAND CITY NWS NOT AVBL
BUXTON           N/A    N/A N/A N/A CALM        N/A
DEVILS LAKE    FAIR      61  32  33 W21G28    29.54R
FARGO          FAIR      53  41  63 S14       29.62F
WAHPETON ARPT  NOT AVBL
$$

 *****  WEATHER ACROSS CENTRAL AND WESTERN NORTH DAKOTA  *****

CITY           SKY/WX    TMP DP  RH WIND       PRES   REMARKS
JAMESTOWN      FAIR      50  36  58 S10       29.58F
BISMARCK       FAIR      53  28  38 SW5       29.65R
MINOT          FAIR      59  31  34 W22G38    29.60R
MINOT AFB      FAIR      58  33  39 W24G33    29.57R
GARRISON         N/A     59  32  36 NW28G38   29.65R
WILLISTON      FAIR      51  35  54 W15G24    29.76R
DICKINSON      FAIR      61  26  26 N29G40    29.72R
HETTINGER      FAIR      54  25  32 NW13      29.75R
$$

 *****  OTHER OBSERVATIONS NORTHEAST NORTH DAKOTA  *****

CITY           SKY/WX    TMP DP  RH WIND       PRES   REMARKS
WALHALLA         N/A    N/A N/A N/A SW20G30   29.43R
LANGDON        FAIR      54  32  43 SW16      29.49R
CAVALIER       FAIR      63  36  36 SW13G21   29.44R
GRAFTON        FAIR      52  36  54 S10       29.48F
CANDO          FAIR      64  27  24 W25G31    29.53R
FORT TOTTEN      N/A     63  29  28 SW10      29.95S
ROLLA          FAIR      61  28  29 W25G39    29.49R
RUGBY          PTSUNNY   63  30  29 W20G30    29.55R
 ***** THE ABOVE OBSERVATIONS ARE NON NWS ARE NOT QUALITY
        CONTROLLED AND MAY MIS-REPORT RAIN FOR SNOW...
$$

 *****  OTHER OBSERVATIONS SOUTHEAST NORTH DAKOTA *****

CITY           SKY/WX    TMP DP  RH WIND       PRES   REMARKS
COOPERSTOWN    FAIR      54  37  54 S16       29.56F
VALLEY CITY    FAIR      50  41  71 S15       29.60F
OAKES          NOT AVBL
GWINNER        SUNNY     54  41  62 SW12      29.66F
SHEYENNE NWR     N/A     52  40  64 SW7       29.95S
BUFFALO          N/A     53  37  53 SW15        N/A
WYNDMERE       NOT AVBL
 ***** THE ABOVE OBSERVATIONS ARE NON NWS ARE NOT QUALITY
       CONTROLLED AND MAY MIS-REPORT RAIN FOR SNOW...
$$

  *****  WEATHER ACROSS NORTHERN MINNESOTA  *****

CITY           SKY/WX    TMP DP  RH WIND       PRES   REMARKS
FLAG ISLAND    FAIR      57  41  54 S13       29.46F
WARROAD        FAIR      61  43  51 SW16G23   29.49F
ROSEAU         FAIR      57  43  58 S16       29.49F
HALLOCK        FAIR      52  36  54 S17       29.44F
THF RVR FALLS  FAIR      59  39  47 S21G28    29.56F
HALSTAD        NOT AVBL
FOSSTON        FAIR      57  37  47 S18G24    29.62F
BAUDETTE       FAIR      55  41  59 S12       29.55F
WASKISH        FAIR      61  39  44 S9        29.59F
CROOKSTON      FAIR      54  41  62 S20       29.55F
$$
  *****  WEATHER ACROSS CENTRAL AND WEST MINNESOTA  *****

CITY           SKY/WX    TMP DP  RH WIND       PRES   REMARKS
BEMIDJI        FAIR      54  38  55 S8        29.66F
PARK RAPIDS    FAIR      47  39  74 S6        29.70F
WADENA         FAIR      55  41  58 S9        29.72S
DETROIT LAKES  FAIR      63  37  39 SW14G24   29.68F
MOORHEAD       FAIR      48  41  76 S14       29.66F
FERGUS FALLS   FAIR      52  43  71 S8        29.72R
ELBOW LAKE     FAIR      51  43  73 S13       29.72S
MORRIS MN      FAIR      48  43  81 S9        29.72F
STAPLES        FAIR      52  39  62 S7        29.74S
WHEATON        FAIR      54  39  58 S8        29.71S
$$
  *****  WEATHER ELSEWHERE ACROSS MINNESOTA  *****

CITY           SKY/WX    TMP DP  RH WIND       PRES   REMARKS
DULUTH         FAIR      53  42  66 SW14      29.79S
INTRNTL FALLS  FAIR      59  38  45 S15G25    29.60F
ELY            FAIR      57  37  47 SW10G16   29.73F
CLOQUET        FAIR      52  39  62 S8        29.79S
BRAINERD       FAIR      52  40  63 S9        29.77S
HIBBING        FAIR      37  35  92 CALM      29.74F
ALEXANDRIA     FAIR      57  43  59 S15G22    29.76F
SAINT CLOUD    FAIR      48  43  82 SE8       29.80F
MINNEAPOLIS    FAIR      56  46  69 S3        29.86F
$$

  *****  WEATHER ACROSS SOUTH DAKOTA  *****

CITY           SKY/WX    TMP DP  RH WIND       PRES   REMARKS
SIOUX FALLS    FAIR      55  45  68 S13       29.81F
BROOKINGS      FAIR      52  43  71 S14       29.77F
WATERTOWN      FAIR      47  43  86 S10       29.73F
HURON          FAIR      46  40  79 S8        29.72S
SISSETON         N/A     60  41  49 S15       29.68S
ABERDEEN       FAIR      46  40  79 S7        29.70R
MITCHELL       FAIR      51  41  68 S10       29.74F
PIERRE         FAIR      48  32  53 NE3       29.70R
MOBRIDGE       FAIR      50  45  83 S6        29.66R
RAPID CITY     FAIR      74  19  12 W22G32    29.77R
$$

  *****  SOME WEATHER IN NEARBY STATES *****

CITY           SKY/WX    TMP DP  RH WIND       PRES   REMARKS
GLASGOW MT     FAIR      46  30  53 W13       29.83R
GREAT FALLS MT FAIR      48  27  44 E8        29.94R
CHEYENNE WY    FAIR      59  10  14 W18G25    30.06S
SCOTTSBLUFF NE FAIR      41  29  62 CALM      29.94S
OMAHA NE       FAIR      50  44  80 SE9       29.94F
DES MOINES IA  FAIR      56  46  69 S13       29.98F
DAVENPORT IA   FAIR      51  41  68 S8        30.10F
CHICAGO IL     FAIR      51  40  65 S7        30.15R
EAU CLAIRE WI  FAIR      50  43  77 S9        29.91F
LA CROSSE WI   FAIR      57  46  66 S13       29.96F
$$

  *****  SOME NATIONAL WEATHER *****

CITY           SKY/WX    TMP DP  RH WIND       PRES   REMARKS
LA GUARDIA NY  FAIR      54  36  50 W7        30.27R
RALEIGH NC     FAIR      39  38  96 CALM      30.34S
ATLANTA GA     FAIR      49  43  80 E9        30.28S
NEW ORLEANS LA FAIR      67  62  84 NE7       30.14S
OKLAHOMA CITY  FAIR      47  43  86 SE8       30.08F
ALBUQUERQUE NM FAIR      53  27  36 NE5       30.20F
SALT LAKE CITY MOCLDY    43  34  70 NE3       30.17R
LOS ANGELES CA FAIR      69  57  65 NE3       29.93R
BOISE ID       FAIR      44  31  60 CALM      30.12S
SEATTLE WA     MOCLDY    49  42  77 SE6       30.06F
$$

*** WEATHER ACROSS MANITOBA...SASKATCHEWAN AND ONTARIO ***
                ***ONTARIO***

CITY           SKY/WX    TMP DP  RH WIND       PRES   REMARKS
GERALDTON      CLEAR     45  39  81 S8        29.77F
THUNDER BAY    CLEAR     36  36 100 CALM      29.76F
SIOUX LOOKOUT  CLEAR     54  39  58 S10G17    29.50F
TORONTO        CLEAR     52  43  71 S7        30.18R
BIG TROUT LK   PTCLDY    39  32  75 SE18G28   29.45F
PICKLE LAKE    NOT AVBL
DRYDEN         CLEAR     57  39  51 S16G23    29.50F
KENORA         CLEAR     57  41  54 SW16      29.45F
$$
                *** MANITOBA***

CITY           SKY/WX    TMP DP  RH WIND       PRES   REMARKS
BRANDON        PTCLDY    59  34  38 W33G43    29.39R
DAUPHIN        MOCLDY    55  39  54 W30G51    29.27R
ISLAND LAKE    PTCLDY    46  39  76 SE16G24   29.11F
PILOT MOUND      N/A     54  27  35 SW13        N/A
THE PAS        PTCLDY    54  39  58 SW22G39   28.76F
THOMPSON       MOCLDY    39  34  81 E10G24    28.92F
WINNIPEG       PTCLDY    57  30  35 SW22G29   29.36R
LYNN LAKE      CLOUDY    34  34 100 E18G24    28.87F WCI  23
CHURCHILL      CLOUDY    32  28  86 E24G30    29.49F WCI  19
GILLAM         FRZ RAIN  32  32 100 E10G24    29.21F WCI  24
$$
                ***SASKATCHEWAN***

CITY           SKY/WX    TMP DP  RH WIND       PRES   REMARKS
ESTEVAN        PTCLDY    46  34  61 W23G31    29.65R
KINDERSLEY     CLEAR     39  25  56 W25G43    29.68R
LLOYDMINSTER   CLEAR     36  28  75 W32G45    29.52R
PRINCE ALBERT  LGT RAIN  43  36  75 W41G51    29.21R
REGINA         PTCLDY    43  30  61 W38G54    29.57R
YORKTON        PTCLDY    48  36  61 W35G53    29.30R



USA.gov is the U.S. government's official web portal to all federal, state and local government web resources and services.